Regional Weather Roundup
Issued by NWS

Home | Current Version | Previous Version | Text Only | Print | Product List | Glossary Off
Versions: 1 2 3 4 5 6 7 8 9 10 11 12 13 14 15 16 17 18 19 20 21 22 23 24 25 26 27 28 29 30 31 32 33 34 35 36 37 38 39 40 41 42 43 44 45 46 47 48 49 50

000
ASUS45 KABQ 021210
RWRNM
WEATHER ROUNDUP FOR NEW MEXICO
NATIONAL WEATHER SERVICE ALBUQUERQUE NM
500 AM MST MON MAR 02 2015

NOTE: "FAIR" MEANS FEW OR NO CLOUDS BELOW 12,000 FEET AGL WITH NO
       SIGNIFICANT WEATHER OR OBSTRUCTIONS TO VISION.

      THIS PRODUCT IS RELEASED AS TWO VERSIONS.  ONE VERSION NEAR
      THE TOP OF THE HOUR CONTAINING PRELIMINARY DATA FROM ALBUQUERQUE
      AND OTHER STATIONS.  A FINAL VERSION WITH ADDITIONAL DATA IS
      ISSUED ABOUT 10 MINUTES AFTER THE HOUR.

NMZ501-503-504-510>518-021300-
NORTHWEST PLATEAU/NORTHCENTRAL MOUNTAINS

CITY           SKY/WX    TMP DP  RH WIND       PRES   REMARKS
FARMINGTON     CLEAR     35  34  96 E10       29.97F WCI  27
6HR MIN TEMP:  35; 6HR MAX TEMP:  37;

LOS ALAMOS     CLOUDY    28  28 100 S9        30.09F WCI  19
SANTA FE       CLOUDY    30  23  75 SE14      30.10F WCI  19
6HR MIN TEMP:  29; 6HR MAX TEMP:  35;

TAOS           CLOUDY    27  21  80 CALM      30.11S
ANGEL FIRE     FAIR      22  20  91 CALM      30.11S

$$
NMZ402-403-502-505>509-021300-
WESTCENTRAL MOUNTAINS/SOUTHWEST MOUNTAINS

CITY           SKY/WX    TMP DP  RH WIND       PRES   REMARKS
GALLUP         PTCLDY    33  29  85 CALM      29.99F
6HR MIN TEMP:  32; 6HR MAX TEMP:  41;

GRANTS         CLOUDY    39  28  65 S7        30.04S WCI  34
SILVER CITY    CLOUDY    50  28  43 E3        30.08S

$$
NMZ407-409-411-412-021300-
SOUTHERN DESERTS

CITY           SKY/WX    TMP DP  RH WIND       PRES   REMARKS
LORDSBURG      FAIR      54  32  43 SE9       30.00F
DEMING         CLOUDY    52  28  39 CALM      30.03S
6HR MIN TEMP:  52; 6HR MAX TEMP:  57;

LAS CRUCES     CLOUDY    54  28  36 SE6       30.05S
HOLLOMAN AFB   CLOUDY    51  32  48 S8        30.05R
ALAMOGORDO     CLOUDY    48  32  53 W7        30.07R
T OR C         CLOUDY    56  27  32 SW5       30.03S
6HR MIN TEMP:  53; 6HR MAX TEMP:  63;


$$
NMZ519>523-021300-
CENTRAL VALLEYS/CENTRAL HIGHLANDS

CITY           SKY/WX    TMP DP  RH WIND       PRES   REMARKS
ALBUQUERQUE    CLOUDY    37  31  78 N8        30.05F WCI  31
6HR MIN TEMP:  37; 6HR MAX TEMP:  51;

MORIARTY ARPT  CLOUDY    30  27  88 S3        30.14F
6HR MIN TEMP:  28; 6HR MAX TEMP:  31;

CLINES CORNERS FOG       26  24  92 E9        30.09F VSB 1/2 WCI  17
6HR MIN TEMP:  26; 6HR MAX TEMP:  28; 6HR PCP: TRACE;

BELEN          FAIR      39  32  77 NE7       30.04S WCI  34
6HR MIN TEMP:  39; 6HR MAX TEMP:  48;

SOCORRO          N/A     49  28  43 S8        30.02S
6HR MIN TEMP:  46; 6HR MAX TEMP:  51;


$$
NMZ524>526-539-540-021300-
SOUTHCENTRAL MOUNTAINS

CITY           SKY/WX    TMP DP  RH WIND       PRES   REMARKS
RUIDOSO        FOG       30  30 100 SE9       30.18F VSB<1/4 WCI  22

$$
NMZ527>531-021300-
NORTHEAST HIGHLANDS/NORTHEAST PLAINS

CITY           SKY/WX    TMP DP  RH WIND       PRES   REMARKS
LAS VEGAS      CLOUDY    23  21  92 S15       30.12F WCI  10
6HR MIN TEMP:  22; 6HR MAX TEMP:  25;

RATON          CLOUDY    24  22  91 W5        30.13F WCI  18
6HR MIN TEMP:  24; 6HR MAX TEMP:  27;

CLAYTON        CLOUDY    24  22  91 S15       30.15F FOG     WCI  11
6HR MIN TEMP:  23; 6HR MAX TEMP:  24;


$$
NMZ532>537-021300-
EASTCENTRAL PLAINS

CITY           SKY/WX    TMP DP  RH WIND       PRES   REMARKS
TUCUMCARI      CLOUDY    29  27  92 SE7       30.23S WCI  22
6HR MIN TEMP:  28; 6HR MAX TEMP:  29;

CANNON AFB     NOT AVBL
CLOVIS AIRPORT CLOUDY    27  27 100 SE7       30.26R WCI  19

$$
NMZ028-029-538-021300-
SOUTHEAST PLAINS

CITY           SKY/WX    TMP DP  RH WIND       PRES   REMARKS
ROSWELL        CLOUDY    33  31  92 SE8       30.27R FOG     WCI  26
6HR MIN TEMP:  33; 6HR MAX TEMP:  38;

ARTESIA        CLOUDY    32  32 100 SE9       30.27F FOG     WCI  24
CARLSBAD       CLOUDY    34  31  88 E6        30.27S FOG     WCI  29
6HR MIN TEMP:  33; 6HR MAX TEMP:  39;

HOBBS          FOG       30  30 100 E8        30.27F VSB 1/2 WCI  23


$$


USA.gov is the U.S. government's official web portal to all federal, state and local government web resources and services.